Regional Weather Roundup
Issued by NWS Boston, MA

Home | Current Version | Previous Version | Text Only | Print | Product List | Glossary On
Versions: 1 2 3 4 5 6 7 8 9 10 11 12 13 14 15 16 17 18 19 20 21 22 23 24 25 26 27 28 29 30 31 32 33 34 35 36 37 38 39 40 41 42 43 44 45 46 47 48 49 50
000
ASUS41 KBOX 311110
RWRBOX

REGIONAL WEATHER ROUNDUP
NATIONAL WEATHER SERVICE TAUNTON MA
700 AM EDT FRI JUL 31 2015

NOTE:  "FAIR" INDICATES FEW OR NO CLOUDS BELOW 12,000 FEET WITH NO
SIGNIFICANT WEATHER AND/OR OBSTRUCTIONS TO VISIBILITY.  THE FOLLOWING
OBSERVATION LOCATIONS DO NOT REPORT PRESENT WEATHER...PROVINCETOWN...
SMITHFIELD...BLOCK ISLAND...KEENE...AND OXFORD.

MAZALL-311200-
EASTERN MASSACHUSETTS

CITY           SKY/WX    TMP DP  RH WIND       PRES   REMARKS
BOSTON         MOSUNNY   74  63  68 W9        29.80R
BEVERLY        SUNNY     70  63  78 W3        29.79R
LAWRENCE       SUNNY     69  64  84 SW5       29.81R
BEDFORD        SUNNY     68  65  90 MISG      29.79R
BLUE HILL        N/A     67  65  93 W12       29.81R
NORWOOD        SUNNY     70  68  93 W3        29.80R
MARSHFIELD     SUNNY     73  70  88 W6        29.81S
PLYMOUTH       SUNNY     72  69  90 W6        29.81R
TAUNTON        SUNNY     73  69  87 CALM      29.80R
NEW BEDFORD    SUNNY     73  71  93 W5        29.80R
$$

MAZALL-311200-
CAPE COD AND THE ISLANDS

CITY           SKY/WX    TMP DP  RH WIND       PRES   REMARKS
FALMOUTH       SUNNY     73  72  94 W6        29.81R
HYANNIS        MOSUNNY   74  69  85 CALM      29.79R
CHATHAM        PTSUNNY   74  71  91 CALM      29.81R
PROVINCETOWN   SUNNY     72  64  78 W8        29.80R
NANTUCKET      PTSUNNY   72  70  93 W7        29.81R
MARTHAS VNYRD  SUNNY     73  71  93 W3        29.82R
$$

MAZALL-311200-
CENTRAL AND WESTERN MASSACHUSETTS

CITY           SKY/WX    TMP DP  RH WIND       PRES   REMARKS
WORCESTER      SUNNY     67  63  87 W8        29.85R
FITCHBURG      SUNNY     68  63  84 N6        29.83R
ORANGE         FOG       63  63 100 CALM      29.83R VSB 1/4
SPRINGFIELD    SUNNY     66  65  98 S2        29.83R
WESTFIELD      SUNNY     64  63  96 CALM      29.84R
NORTH ADAMS    MOSUNNY   62  60  93 CALM      29.85R
PITTSFIELD     MOSUNNY   66  59  78 SW6       29.86R
$$

RIZALL-311200-
RHODE ISLAND

CITY           SKY/WX    TMP DP  RH WIND       PRES   REMARKS
PROVIDENCE     MOSUNNY   73  69  87 W9        29.82R
NEWPORT        SUNNY     72  69  90 W3        29.82R
BLOCK ISLAND     N/A     70  70 100 W7        29.85R VSB<1/4
SMITHFIELD     SUNNY     68  66  94 W3        29.83R
WESTERLY       PTSUNNY   72  71  97 CALM      29.84R FOG
$$

CTZALL-311200-
CONNECTICUT

CITY           SKY/WX    TMP DP  RH WIND       PRES   REMARKS
BRADLEY INTL   MOSUNNY   69  65  86 SW3       29.83R
HARTFORD       SUNNY     71  70  96 SE3       29.84R
BRIDGEPORT     SUNNY     72  66  81 CALM      29.85R
DANBURY        SUNNY     66  62  87 SW3       29.88R
GROTON         SUNNY     72  70  93 CALM      29.83R FOG
NEW HAVEN      SUNNY     72  68  87 CALM      29.84R
CHESTER        NOT AVBL
MERIDEN        SUNNY     68  66  93 CALM      29.85R
WILLIMANTIC    FOG       68  67  96 CALM      29.85R VSB 1/4
OXFORD         SUNNY     70  63  78 CALM      29.89R
$$

MEZ002-015-021-024-NHZ003-005-008-011-012-014-VTZ005-008-311200-
NORTHERN NEW ENGLAND

CITY           SKY/WX    TMP DP  RH WIND       PRES   REMARKS
PORTLAND ME    SUNNY     70  65  84 W8        29.75R
BANGOR ME      PTSUNNY   67  67 100 S3        29.70S
CONCORD NH     SUNNY     63  61  93 SE3       29.79S
MANCHESTER NH  MOSUNNY   67  62  84 S5        29.78R
NASHUA NH      SUNNY     68  63  83 MISG        N/A
PORTSMOUTH NH  MOSUNNY   69  64  83 W8        29.77R
JAFFREY NH     SUNNY     64  61  90 S6        29.84R
KEENE NH       CLOUDY    61  55  82 CALM      29.83R VSB<1/4
BURLINGTON VT  MOSUNNY   67  59  75 SW6       29.76R
MT. WASHINGTON FOG       46  46 100 W53         N/A  VSB 0
$$

NYZ052-076-311200-
EASTERN NEW YORK

CITY           SKY/WX    TMP DP  RH WIND       PRES   REMARKS
ALBANY         MOSUNNY   70  59  68 W10       29.83R
NEW YORK CITY  MOSUNNY   75  60  59 NW8       29.86R
$$

ANZALL-311200-
MARINE OBSERVATIONS

STATION/POSITION TIME  TEMP    WIND        PRES    VSBY  WAVE
                       AIR SEA DIR/SP/G                  HT/PER
                 (UTC) (F)     (DEG/KT/KT) (MB)    (MI)  (FT/S)
BOSTON BUOY      1050   71 69  260/ 10/ 10 1009.0R         1/ 9
BUZZARDS BAY     1000          280/  8/  9 1010.1R
NANTUCKET SOUND  1050   75 73  260/  8/  8 1009.2R         1/ 3
MASS BAY-STELLWA 1004   70 67  260/  8/ 10   N/A    1 7/8  2/11
ISLE OF SHOALS   1000   68     270/ 11/ 12 1007.3R
S OF BLOCK IS    1008      73                N/A           4/ 6
$$

......................KEY.........................
  SKY/WX - SKY CONDITION/PRESENT WEATHER
  TMP    - TEMPERATURE IN FAHRENHEIT
  DWPT   - DEWPOINT IN FAHRENHEIT
  RH     - RELATIVE HUMIDITY IN PERCENT
  WIND   - DIRECTION AND SPEED IN MPH
  PRES   - MEAN SEA LEVEL PRESSURE IN INCHES OF HG
  WCI    - WIND CHILL INDEX
  VSB    - VISIBILITY IN MILES
  HX     - HEAT INDEX
  TC     - TEMPERATURE IN CELSIUS
  VRB    - VARIABLE WIND DIRECTION
  N/A    - NOT AVAILABLE


USA.gov is the U.S. government's official web portal to all federal, state and local government web resources and services.